Flag for U.S.A. Weather past 2 weeks in San Francisco, California, U.S.A.

Now
66 °F

Mostly cloudy.


Feels Like: 66 °F
Forecast: 63 / 71 °F
Wind: 8 mph from West

Location: San Francisco International Airport

Current Time: Sep 22, 2014 at 6:01:25 AM

Latest Report: Sep 22, 2014 at 4:56 AM


Visibility: 10 mi

Pressure: 30.00 "Hg

Humidity: 81%

Dew point: 60 °F

Location of San FranciscoLocation

Historic Weather in San Francisco — Graph

°F

San Francisco temperature yesterday

Maximum temperature yesterday: 72 °F (at 2:56 PM)
Minimum temperature yesterday: 65 °F (at 12:56 AM)
Average temperature yesterday: 68 °F

Past Weeks' High & Low Weather Summary

 TemperatureHumidityPressure
High82 °F (Sep 10, 2:56 PM)96% (Sep 10, 7:56 AM)30.02 "Hg (Sep 10, 7:56 AM)
Low56 °F (Sep 10, 4:56 AM)41% (Sep 17, 2:56 PM)29.74 "Hg (Sep 17, 6:56 PM)
Average66 °F77%29.88 "Hg
* Reported Sep 7 4:56 AM — Sep 22 4:56 AM, San Francisco, Weather by CustomWeather, © 2014

Note: Actual official high and low records may vary slightly from our data, if they occured in-between our weather recording intervals... More about our weather records

Advertising

San Francisco weather history for previous 24 hours

 ConditionsComfort  
Time TempWeatherWind HumidityBarometerVisibility
4:56 AM
Sep 22
66 °FMostly cloudy.8 mph81%30.00 "Hg10 mi
3:56 AM66 °FMostly cloudy.9 mph78%30.01 "Hg10 mi
2:56 AM66 °FMostly cloudy.7 mph81%30.00 "Hg10 mi
1:56 AM66 °FMostly cloudy.7 mph84%30.01 "Hg10 mi
12:56 AM67 °FMostly cloudy.6 mph81%30.01 "Hg10 mi
11:56 PM
Sep 21
67 °FMostly cloudy.7 mph79%30.01 "Hg10 mi
10:56 PM67 °FOvercast.8 mph79%30.02 "Hg10 mi
9:56 PM67 °FOvercast.9 mph79%30.02 "Hg10 mi
8:56 PM67 °FOvercast.8 mph79%30.02 "Hg10 mi
7:56 PM68 °FOvercast.12 mph76%30.00 "Hg10 mi
6:56 PM68 °FOvercast.10 mph76%30.00 "Hg10 mi
5:56 PM69 °FPartly sunny.14 mph73%30.00 "Hg10 mi
4:56 PM71 °FPartly sunny.15 mph68%29.99 "Hg10 mi
3:56 PM72 °FPartly sunny.15 mph68%29.99 "Hg10 mi
2:56 PM72 °FPartly sunny.14 mph66%29.99 "Hg10 mi
1:56 PM70 °FPartly sunny.12 mph73%30.00 "Hg10 mi
12:56 PM70 °FOvercast.10 mph71%30.01 "Hg10 mi
11:56 AM69 °FMore clouds than sun.7 mph76%30.02 "Hg10 mi
10:56 AM68 °FOvercast.5 mph76%30.02 "Hg10 mi
9:56 AM67 °FMostly cloudy.8 mph79%30.01 "Hg10 mi
8:56 AM67 °FMostly cloudy.8 mph79%30.00 "Hg10 mi
7:56 AM66 °FMostly cloudy.6 mph81%29.99 "Hg10 mi
6:56 AM66 °FMostly cloudy.7 mph81%29.97 "Hg10 mi
Weather by CustomWeather, © 2014

See weather overviewHow to use our weather pages